[[{"header":{"parameterUnit":"m.s-1","parameterCategory":1,"la1":30.2991,"la2":30.254,"lo1":-89.0895,"lo2":-89.0444,"dy":0.0017,"dx":0.0017,"nx":28,"ny":28,"refTime":"2025-02-07T03:00:00:Z","depth":0,"parameterNumber":2,"parameterNumberName":"U-component_of_WINDS"},"data":[0,0,0,0,0,0,0,0,0,0,0,0,0,0,0,0,0,0,0,0,0,0,0,0,0,0,0,0,0,0,0,0,0,0,0,0,0,0,0,0,0,0,0,0,0,0,0,0,0,0,0,0,0,0,0,0,0,0,-0.7887,-0.7886,0,-0.7827,-0.7826,-0.7826,-0.7789,-0.7789,-0.7789,-0.7788,-0.7726,-0.7724,-0.7723,0,0,0,0,0,0,0,0,0,0,0,0,0,-0.7968,-0.7967,-0.7887,-0.7886,-0.7885,-0.7827,-0.7826,-0.7826,-0.7789,-0.7789,-0.7789,-0.7788,-0.7726,-0.7724,-0.7723,0,0,0,0,0,0,0,0,0,0,0,0,0,-0.7923,-0.7967,-0.7887,-0.786,-0.7857,-0.7827,-0.7826,-0.7825,-0.7789,-0.7789,-0.7788,-0.7788,-0.7727,-0.7725,-0.7722,-0.7714,0,0,-0.7716,-0.7715,0,0,0,0,0,0,0,0,-0.7926,-0.792,-0.7865,-0.7862,-0.7859,-0.7815,-0.7832,-0.7788,-0.7789,-0.7815,-0.7788,-0.7788,-0.7756,-0.7751,-0.774,-0.7711,-0.7709,-0.7715,-0.7714,-0.7713,-0.7712,0,0,0,0,0,0,0,-0.7929,-0.7923,-0.7863,-0.7864,-0.786,-0.7851,-0.7844,-0.7824,-0.7788,-0.7813,-0.781,-0.7803,-0.7754,-0.7743,-0.7739,-0.7708,-0.7715,-0.7713,-0.7712,-0.7711,-0.7669,-0.7669,0,0,0,0,0,0,-0.7937,-0.7926,-0.7865,-0.7861,-0.7892,-0.785,-0.7842,-0.7829,-0.7788,-0.7781,-0.7804,-0.7802,-0.7747,-0.7741,-0.7736,-0.7724,-0.7713,-0.7711,-0.771,-0.7669,-0.7669,-0.7669,0,0,0,0,0,0,-0.7939,-0.7932,-0.7868,-0.7893,-0.7884,-0.7848,-0.7835,-0.7828,-0.7817,-0.7781,-0.7774,-0.7799,-0.7746,-0.7739,-0.772,-0.7721,-0.771,-0.7708,-0.7668,-0.7669,-0.7669,-0.7699,0,0,0,0,0,0,-0.7941,-0.7932,-0.7929,-0.7893,-0.7883,-0.7853,-0.7835,-0.7827,-0.7813,-0.7811,-0.7775,-0.7768,-0.7745,-0.7724,-0.7718,-0.7718,-0.7706,-0.7668,-0.7669,-0.7669,-0.7697,-0.77,-0.7702,0,0,0,0,0,-0.7944,-0.794,-0.7929,-0.7922,-0.7878,-0.7853,-0.7847,-0.7821,-0.7814,-0.781,-0.7787,-0.7769,-0.7722,-0.7722,-0.7715,-0.7714,-0.7668,-0.7669,-0.7669,-0.7696,-0.7699,-0.7702,0,0,0,0,0,0,-0.7976,-0.7934,-0.7922,-0.7906,-0.7883,-0.7847,-0.7841,-0.7825,-0.7804,-0.7802,-0.777,-0.7762,-0.7746,-0.7728,-0.7729,-0.7704,-0.7693,-0.7692,-0.7716,-0.7719,-0.7721,-0.7725,-0.7704,0,0,0,0,0,-0.7982,-0.7965,-0.7929,-0.7918,-0.7908,-0.7877,-0.7865,-0.7847,-0.7822,-0.7812,-0.7787,-0.7763,-0.7743,-0.773,-0.7709,-0.7695,-0.7686,-0.7691,-0.7694,-0.7696,-0.7695,-0.7686,-0.7687,-0.7671,-0.7671,-0.7671,0,0,-0.7992,-0.7967,-0.7958,-0.7924,-0.7904,-0.7888,-0.7869,-0.7852,-0.7839,-0.7809,-0.7789,-0.7771,-0.7742,-0.7725,-0.7716,-0.771,-0.7698,-0.7696,-0.7698,-0.7696,-0.7686,-0.7688,-0.7689,-0.7671,-0.7671,-0.7671,0,0,-0.8002,-0.7982,-0.7971,-0.7952,-0.7922,-0.7902,-0.7899,-0.7865,-0.7852,-0.7831,-0.7809,-0.7793,-0.7759,-0.7739,-0.7725,-0.7729,-0.7712,-0.7723,-0.7735,-0.7726,-0.7727,-0.7728,-0.7729,-0.773,-0.7723,-0.7723,-0.7723,0,-0.8019,-0.7993,-0.7967,-0.7951,-0.7937,-0.791,-0.7898,-0.788,-0.7846,-0.7836,-0.783,-0.7786,-0.7765,-0.7743,-0.7744,-0.7734,-0.7729,-0.7726,-0.7729,-0.773,-0.7731,-0.7731,-0.7731,-0.7724,-0.7724,-0.7724,-0.7724,0,-0.8015,-0.7997,-0.7991,-0.7959,-0.7944,-0.793,-0.7902,-0.789,-0.7873,-0.7854,-0.7833,-0.7807,-0.7781,-0.7774,-0.7758,-0.775,-0.7747,-0.7736,-0.7723,-0.7734,-0.7734,-0.7734,-0.7726,-0.7726,-0.7725,-0.7725,0,0,-0.8042,-0.7996,-0.7994,-0.7979,-0.7946,-0.7931,-0.7917,-0.7891,-0.7881,-0.7859,-0.7845,-0.7817,-0.7806,-0.779,-0.7772,-0.7764,-0.7769,-0.7753,-0.7752,-0.7756,-0.7757,-0.7765,-0.7766,-0.7758,-0.7758,-0.7758,-0.7759,0,-0.8047,-0.8019,-0.7995,-0.7976,-0.7959,-0.7934,-0.7921,-0.7899,-0.788,-0.7863,-0.7843,-0.7823,-0.7811,-0.7801,-0.7793,-0.777,-0.7768,-0.777,-0.7744,-0.7743,-0.7751,-0.7766,-0.7774,-0.7777,-0.7759,-0.7759,-0.7759,0,-0.8048,-0.8027,-0.8006,-0.7974,-0.7966,-0.7955,-0.793,-0.7914,-0.7888,-0.7875,-0.7858,-0.7839,-0.7822,-0.7813,-0.7788,-0.779,-0.7778,-0.7766,-0.7765,-0.7761,-0.7751,-0.7761,-0.7777,-0.7778,-0.7759,-0.7759,-0.7759,0,-0.8069,-0.8036,-0.8019,-0.8007,-0.7969,-0.7962,-0.7946,-0.792,-0.7906,-0.7885,-0.7875,-0.7852,-0.7839,-0.7821,-0.7796,-0.7792,-0.7774,-0.7763,-0.7762,-0.7763,-0.7758,-0.7759,-0.7772,-0.7753,-0.7753,-0.7753,-0.7753,0,-0.8076,-0.8064,-0.8028,-0.8017,-0.8003,-0.7976,-0.7963,-0.7945,-0.7922,-0.7907,-0.7885,-0.7871,-0.784,-0.7823,-0.7803,-0.7786,-0.778,-0.7769,-0.7764,-0.777,-0.7772,-0.7761,-0.776,-0.7753,-0.7753,-0.7753,-0.7753,0,-0.8097,-0.8072,-0.8052,-0.8018,-0.801,-0.8001,-0.7972,-0.7961,-0.7941,-0.7923,-0.7917,-0.7886,-0.7865,-0.7839,-0.7809,-0.7796,-0.778,-0.7773,-0.7789,-0.7786,-0.7786,-0.7786,-0.7792,-0.7792,-0.7774,-0.7774,-0.7775,0,-0.8102,-0.8093,-0.8058,-0.8047,-0.8032,-0.8014,-0.8,-0.7974,-0.796,-0.793,-0.7923,-0.79,-0.788,-0.7847,-0.7822,-0.7799,-0.779,-0.7794,-0.7787,-0.7794,-0.7789,-0.779,-0.7788,-0.7796,-0.7796,-0.7796,-0.7797,0,-0.8115,-0.8103,-0.8084,-0.8061,-0.8045,-0.8025,-0.8005,-0.7997,-0.7966,-0.7952,-0.793,-0.7915,-0.7885,-0.7862,-0.7836,-0.7819,-0.7803,-0.7799,-0.7798,-0.7804,-0.7813,-0.7807,-0.7793,-0.7799,-0.7799,-0.7799,-0.7798,-0.7798,-0.8127,-0.8117,-0.8091,-0.8071,-0.8053,-0.8034,-0.8022,-0.8002,-0.7983,-0.7957,-0.7942,-0.7921,-0.7896,-0.7859,-0.7843,-0.7826,-0.7819,-0.7817,-0.7817,-0.7816,-0.7818,-0.7817,-0.7821,-0.7821,-0.7821,-0.7821,-0.782,0,-0.8137,-0.812,-0.8101,-0.8073,-0.8057,-0.8044,-0.8021,-0.8008,-0.799,-0.7968,-0.7949,-0.7924,-0.7902,-0.7876,-0.7852,-0.7843,-0.7835,-0.7838,-0.7837,-0.7834,-0.7825,-0.7828,-0.7845,-0.7845,-0.7845,-0.7845,-0.7845,-0.7845,-0.814,-0.8123,-0.8108,-0.8082,-0.8064,-0.8043,-0.8031,-0.8013,-0.7996,-0.7969,-0.7951,-0.7934,-0.791,-0.7885,-0.7864,-0.7857,-0.7849,-0.7854,-0.7844,-0.7836,-0.7834,-0.7832,-0.7835,-0.7853,-0.7853,-0.7854,-0.7854,-0.7854]},{"header":{"parameterUnit":"m.s-1","parameterCategory":1,"la1":30.2991,"la2":30.254,"lo1":-89.0895,"lo2":-89.0444,"dy":0.0017,"dx":0.0017,"nx":28,"ny":28,"refTime":"2025-02-07T03:00:00:Z","depth":0,"parameterNumber":3,"parameterNumberName":"V-component_of_WINDS"},"data":[0,0,0,0,0,0,0,0,0,0,0,0,0,0,0,0,0,0,0,0,0,0,0,0,0,0,0,0,0,0,0,0,0,0,0,0,0,0,0,0,0,0,0,0,0,0,0,0,0,0,0,0,0,0,0,0,0,0,3.2722,3.2722,0,3.2753,3.2753,3.2754,3.2749,3.2749,3.2748,3.2748,3.2779,3.2781,3.2782,0,0,0,0,0,0,0,0,0,0,0,0,0,3.266,3.2661,3.2722,3.2722,3.2723,3.2753,3.2753,3.2754,3.2749,3.2749,3.2748,3.2748,3.2779,3.2781,3.2782,0,0,0,0,0,0,0,0,0,0,0,0,0,3.2688,3.2661,3.2722,3.2724,3.2725,3.2753,3.2754,3.2754,3.275,3.2749,3.2748,3.2747,3.2778,3.278,3.2782,3.281,0,0,3.2789,3.2789,0,0,0,0,0,0,0,0,3.2687,3.2691,3.2723,3.2724,3.2725,3.2747,3.2743,3.2773,3.275,3.274,3.2748,3.2747,3.2769,3.2772,3.2779,3.2812,3.2813,3.2789,3.279,3.2791,3.2791,0,0,0,0,0,0,0,3.2685,3.2689,3.2734,3.2724,3.2725,3.2724,3.2727,3.2749,3.2759,3.2741,3.2741,3.2744,3.2769,3.2777,3.278,3.2814,3.2789,3.279,3.2792,3.2792,3.2873,3.2874,0,0,0,0,0,0,3.2682,3.2688,3.2733,3.2735,3.2703,3.2726,3.2729,3.274,3.2758,3.276,3.2745,3.2744,3.2774,3.2778,3.2781,3.2817,3.2791,3.2793,3.2794,3.2872,3.2874,3.2875,0,0,0,0,0,0,3.2681,3.2686,3.2732,3.2711,3.2717,3.2728,3.274,3.2741,3.2749,3.2761,3.2763,3.2752,3.2774,3.2778,3.2804,3.2818,3.2794,3.2795,3.2871,3.2873,3.2874,3.2888,0,0,0,0,0,0,3.2679,3.2686,3.2696,3.2712,3.2718,3.2754,3.2741,3.2742,3.2753,3.2752,3.2768,3.277,3.2774,3.2801,3.2806,3.282,3.2797,3.287,3.2872,3.2874,3.2886,3.2889,3.2892,0,0,0,0,0,3.2677,3.2698,3.2697,3.2702,3.2731,3.2754,3.2758,3.2762,3.2754,3.2765,3.2773,3.2769,3.2815,3.2803,3.2809,3.2824,3.2869,3.2871,3.2873,3.2885,3.2889,3.2892,0,0,0,0,0,0,3.2683,3.27,3.2699,3.2726,3.2739,3.2754,3.2767,3.2766,3.2782,3.278,3.2784,3.2788,3.2814,3.2821,3.2808,3.2854,3.2841,3.2845,3.2848,3.2852,3.2855,3.2853,3.2799,0,0,0,0,0,3.2688,3.2705,3.2719,3.2741,3.2748,3.2757,3.2767,3.2769,3.2783,3.2788,3.2798,3.2812,3.2829,3.2841,3.2857,3.2887,3.2891,3.29,3.2903,3.2906,3.2909,3.2927,3.2932,3.2882,3.2882,3.2882,0,0,3.2698,3.2709,3.2719,3.2743,3.2753,3.2772,3.2761,3.2781,3.2795,3.2791,3.2816,3.2824,3.2839,3.2868,3.288,3.2875,3.2924,3.2909,3.291,3.2912,3.293,3.2935,3.2939,3.2883,3.2883,3.2883,0,0,3.2725,3.2734,3.2755,3.2766,3.2783,3.2789,3.2794,3.2809,3.2815,3.284,3.2838,3.2855,3.2885,3.2897,3.2906,3.294,3.2938,3.2946,3.2962,3.298,3.2984,3.2987,3.3001,3.3006,3.2948,3.2949,3.2949,0,3.2735,3.2762,3.2766,3.2786,3.2798,3.2796,3.2818,3.2828,3.2849,3.2857,3.285,3.2889,3.2899,3.2931,3.294,3.2947,3.2954,3.2944,3.2983,3.2987,3.299,3.3003,3.3008,3.2949,3.2949,3.2949,3.2949,0,3.2775,3.2794,3.2809,3.283,3.2843,3.2863,3.2871,3.2884,3.2885,3.2892,3.2919,3.2931,3.2952,3.2959,3.296,3.2992,3.2988,3.2982,3.297,3.2996,3.3008,3.3013,3.2951,3.295,3.295,3.295,0,0,3.2806,3.2831,3.2836,3.2847,3.2865,3.288,3.2902,3.2922,3.2934,3.2948,3.2967,3.2994,3.2989,3.3,3.3003,3.3018,3.3046,3.301,3.3011,3.3018,3.3084,3.309,3.3095,3.3045,3.3046,3.3047,3.3084,0,3.2837,3.2875,3.288,3.2914,3.2933,3.2932,3.2951,3.2965,3.2972,3.2989,3.2997,3.3017,3.3008,3.3015,3.303,3.304,3.306,3.3037,3.3064,3.3065,3.3061,3.3101,3.3107,3.3141,3.3088,3.3089,3.309,0,3.2877,3.2894,3.293,3.2948,3.2956,3.2973,3.2993,3.3009,3.3026,3.303,3.3044,3.3045,3.3068,3.3055,3.3088,3.3072,3.3083,3.309,3.3091,3.3095,3.3079,3.3108,3.3152,3.3157,3.3097,3.3096,3.3096,0,3.2899,3.293,3.2957,3.2965,3.2986,3.2999,3.3008,3.3024,3.3036,3.3054,3.3062,3.3082,3.3093,3.3109,3.3116,3.3105,3.3149,3.3136,3.3154,3.3154,3.3164,3.3164,3.3212,3.3169,3.3169,3.3169,3.3169,0,3.2933,3.2955,3.2967,3.2983,3.3009,3.3015,3.304,3.3049,3.3064,3.3082,3.3082,3.31,3.3107,3.3126,3.3132,3.3159,3.3164,3.3169,3.317,3.317,3.3169,3.3178,3.3176,3.3171,3.317,3.317,3.317,0,3.2961,3.297,3.2999,3.3017,3.3022,3.3041,3.3057,3.3073,3.308,3.3104,3.311,3.3122,3.3145,3.3153,3.318,3.3184,3.3217,3.3215,3.3211,3.3212,3.3231,3.323,3.3288,3.3296,3.3246,3.3247,3.3247,0,3.2983,3.3001,3.3021,3.3034,3.3044,3.3064,3.3078,3.3084,3.3098,3.3119,3.3134,3.3156,3.3175,3.3211,3.3223,3.3244,3.3244,3.3263,3.3247,3.3247,3.3246,3.3246,3.3248,3.3266,3.3267,3.3267,3.3267,0,3.3021,3.3025,3.3044,3.3066,3.3082,3.3099,3.3115,3.3125,3.3135,3.3151,3.3174,3.3189,3.3217,3.324,3.3263,3.3273,3.3273,3.3272,3.3278,3.3278,3.3276,3.3279,3.3221,3.3271,3.3271,3.327,3.327,3.327,3.3048,3.3065,3.3083,3.3104,3.3118,3.3133,3.315,3.3161,3.318,3.3205,3.3207,3.3233,3.3251,3.3281,3.3292,3.3313,3.3308,3.3316,3.3318,3.332,3.3323,3.3272,3.3317,3.3317,3.3316,3.3316,3.3316,0,3.3088,3.31,3.312,3.3144,3.3161,3.3159,3.3178,3.3193,3.3216,3.3232,3.3251,3.3279,3.3302,3.3316,3.3339,3.3353,3.3353,3.3359,3.3358,3.3361,3.3325,3.3318,3.3358,3.3358,3.3358,3.3358,3.3358,3.3358,3.3111,3.314,3.3146,3.3181,3.3193,3.3218,3.323,3.3245,3.3258,3.329,3.3309,3.3318,3.3334,3.3358,3.338,3.3383,3.3392,3.3399,3.3402,3.3368,3.3364,3.3359,3.3353,3.34,3.34,3.3437,3.3437,3.3438]}]]